Location: Bonnesvalyn
(49.1218°N, 3.3177°E)
Time: 06:01:24
(UTC+00:00)

Cosmos 2219 Rocket - Pass Details

Date: 09 February 2023
Orbit: 826 x 848 km, 71.0° (Epoch: 29 March)

Event Time Altitude Azimuth Distance (km) Brightness Sun altitude
Rises 18:08:09 0° 203° (SSW) 3,353 5.8 -12.1°
Reaches altitude 10° 18:10:33 10° 203° (SSW) 2,425 5.0 -12.5°
Maximum altitude 18:16:07 82° 116° (ESE) 844 2.1 -13.4°
Drops below altitude 10° 18:21:45 10° 30° (NNE) 2,453 4.3 -14.3°
Enters shadow 18:23:21 - 30° (NNE) 3,066 4.8 -14.6°
